Regional Weather Roundup
Issued by NWS

Home | Current Version | Previous Version | Graphics & Text | Print | Product List | Glossary Off
Versions: 1 2 3 4 5 6 7 8 9 10 11 12 13 14 15 16 17 18 19 20 21 22 23 24 25 26 27 28 29 30 31 32 33 34 35 36 37 38 39 40 41 42 43 44 45 46 47 48 49 50

000
ASUS43 KTOP 040908
RWRKS

WEATHER ROUNDUP FOR KANSAS
NATIONAL WEATHER SERVICE GOODLAND KS
400 AM CDT SAT JUL 04 2015

NOTE:  "FAIR" INDICATES FEW OR NO CLOUDS BELOW 12,000 FEET WITH NO
SIGNIFICANT WEATHER AND/OR OBSTRUCTIONS TO VISIBILITY.

KSZ001>006-013>018-027>032-041>047-041000-
NORTHWEST KANSAS

CITY           SKY/WX    TMP DP  RH WIND       PRES   REMARKS
GOODLAND       PTCLDY    66  59  78 S10       30.03F
HAYS           CLEAR     63  54  72 CALM      30.00F
HILL CITY      PTCLDY    62  58  86 E3        30.00F
RUSSELL        CLEAR     64  62  93 SE7       29.98F
$$

KSZ061>065-074>080-084>089-041000-
SOUTHWEST KANSAS

CITY           SKY/WX    TMP DP  RH WIND       PRES   REMARKS
DODGE CITY     PTCLDY    65  59  81 S9        30.02F
ELKHART          N/A     65  58  78 SW6         N/A
GARDEN CITY    LGT RAIN  65  62  90 S8        30.02S
GREAT BEND     CLEAR     64  61  88 SE3       30.00F
LIBERAL        MOCLDY    70  63  78 E6        30.04S
PRATT          PTCLDY    66  61  82 SE6       30.01S
$$

KSZ066>073-081>083-090>101-041000-
SOUTHEAST KANSAS

CITY           SKY/WX    TMP DP  RH WIND       PRES   REMARKS
CHANUTE        MOCLDY    68  63  84 E5        29.97S
COFFEYVILLE    PTCLDY    68  66  93 NE6       29.95S
HUTCHINSON     CLEAR     64  60  87 E3        29.99S
MEDICINE LODGE   N/A     68  63  84 SE3       29.98S
NEWTON         CLEAR     64  57  77 E5        30.01S
PARSONS        CLOUDY    69  66  90 CALM      29.97S
WICHITA INTL   CLEAR     68  61  78 E3        29.98S
WICHITA JABRA  CLEAR     64  62  93 CALM      29.98S
WICHITA MCCONL CLEAR     68  62  81 E7        29.98S
WINFIELD       CLEAR     68  64  87 E5        29.98S
$$

KSZ007>012-019>026-033>040-048>060-102>105-041000-
NORTHEAST KANSAS

CITY           SKY/WX    TMP DP  RH WIND       PRES   REMARKS
CONCORDIA      CLEAR     61  56  83 SE3       29.99F
EMPORIA        PTCLDY    62  60  93 CALM      29.99S
LAWRENCE       CLEAR     60  58  92 CALM      29.99S
MANHATTAN      CLEAR     59  58  96 CALM      29.98F FOG
MARYSVILLE     CLEAR     59  59 100 CALM      30.00R
OLATHE IND     CLEAR     64  59  83 E5        29.99S
OLATHE EXE     CLEAR     62  59  90 E3        29.98S
SALINA         CLEAR     66  58  75 CALM      30.00R
TOPEKA BILLARD CLEAR     62  60  93 CALM      29.99R FOG
TOPEKA FORBES  CLEAR     62  59  90 CALM      29.98S
$$



USA.gov is the U.S. government's official web portal to all federal, state and local government web resources and services.